TimeCDT,TemperatureF,Dew PointF,Humidity,Sea Level PressureIn,VisibilityMPH,Wind Direction,Wind SpeedMPH,Gust SpeedMPH,PrecipitationIn,Events,Conditions,WindDirDegrees,DateUTC
12:15 AM,68.0,60.8,78,30.03,10.0,NNE,16.1,25.3,N/A,,Overcast,30,2013-09-08 05:15:00
12:35 AM,66.2,60.8,83,30.03,10.0,NE,12.7,23.0,N/A,,Overcast,40,2013-09-08 05:35:00
12:55 AM,64.4,60.8,88,30.04,10.0,NNE,13.8,20.7,N/A,,Overcast,20,2013-09-08 05:55:00
1:15 AM,64.4,60.8,88,30.04,10.0,NNE,13.8,20.7,N/A,,Overcast,30,2013-09-08 06:15:00
1:35 AM,66.2,60.8,83,30.03,10.0,NNE,11.5,-,N/A,,Overcast,20,2013-09-08 06:35:00
1:55 AM,66.2,60.8,83,30.04,10.0,NNE,9.2,-,N/A,,Overcast,30,2013-09-08 06:55:00
2:15 AM,64.4,59.0,83,30.04,10.0,NNE,12.7,18.4,N/A,,Overcast,20,2013-09-08 07:15:00
2:35 AM,64.4,59.0,83,30.04,10.0,NNE,9.2,-,N/A,,Overcast,30,2013-09-08 07:35:00
2:55 AM,64.4,59.0,83,30.04,10.0,NNE,11.5,17.3,N/A,,Overcast,20,2013-09-08 07:55:00
3:15 AM,64.4,59.0,83,30.04,10.0,NNE,9.2,-,N/A,,Overcast,30,2013-09-08 08:15:00
3:35 AM,64.4,59.0,83,30.04,10.0,NE,15.0,21.9,N/A,,Overcast,40,2013-09-08 08:35:00
3:55 AM,64.4,59.0,83,30.05,10.0,NNE,10.4,19.6,N/A,,Overcast,20,2013-09-08 08:55:00
4:15 AM,64.4,59.0,83,30.05,10.0,NNE,11.5,17.3,N/A,,Overcast,30,2013-09-08 09:15:00
4:35 AM,64.4,59.0,83,30.05,10.0,NNE,13.8,18.4,N/A,,Overcast,30,2013-09-08 09:35:00
4:55 AM,64.4,59.0,83,30.04,10.0,NNE,9.2,-,N/A,,Overcast,20,2013-09-08 09:55:00
5:15 AM,64.4,59.0,83,30.04,10.0,NNE,9.2,17.3,N/A,,Overcast,30,2013-09-08 10:15:00
5:35 AM,64.4,59.0,83,30.05,10.0,NNE,8.1,-,N/A,,Overcast,20,2013-09-08 10:35:00
5:55 AM,64.4,59.0,83,30.05,10.0,NNE,9.2,-,N/A,,Overcast,30,2013-09-08 10:55:00
6:15 AM,64.4,59.0,83,30.06,10.0,NE,11.5,-,N/A,,Overcast,40,2013-09-08 11:15:00
6:35 AM,64.4,59.0,83,30.06,10.0,NE,9.2,-,N/A,,Overcast,40,2013-09-08 11:35:00
6:45 AM,66.2,60.8,83,30.07,10.0,NE,9.2,-,N/A,,Overcast,40,2013-09-08 11:45:00
6:55 AM,64.4,60.8,88,30.07,10.0,NE,5.8,-,N/A,,Overcast,50,2013-09-08 11:55:00
7:45 AM,66.2,60.8,83,30.07,10.0,NE,8.1,-,N/A,,Overcast,50,2013-09-08 12:45:00
8:45 AM,66.2,60.8,83,30.07,10.0,NE,10.4,-,N/A,,Overcast,50,2013-09-08 13:45:00
9:45 AM,68.0,62.6,83,30.08,10.0,ENE,6.9,-,N/A,,Overcast,60,2013-09-08 14:45:00
10:45 AM,69.8,62.6,78,30.08,10.0,ENE,10.4,16.1,N/A,,Overcast,70,2013-09-08 15:45:00
11:45 AM,69.8,62.6,78,30.09,10.0,ENE,9.2,-,N/A,,Overcast,70,2013-09-08 16:45:00
12:45 PM,68.0,62.6,83,30.09,5.0,East,8.1,-,N/A,,Overcast,80,2013-09-08 17:45:00
1:45 PM,68.0,60.8,78,30.08,10.0,ESE,9.2,-,N/A,,Overcast,110,2013-09-08 18:45:00
2:45 PM,69.8,60.8,73,30.07,10.0,East,8.1,-,N/A,,Overcast,90,2013-09-08 19:45:00
3:45 PM,71.6,60.8,69,30.06,10.0,ENE,9.2,-,N/A,,Overcast,70,2013-09-08 20:45:00
4:45 PM,71.6,60.8,69,30.04,10.0,East,6.9,-,N/A,,Scattered Clouds,80,2013-09-08 21:45:00
5:45 PM,71.6,59.0,64,30.02,10.0,East,5.8,-,N/A,,Clear,90,2013-09-08 22:45:00
6:45 PM,69.8,59.0,68,30.01,10.0,East,9.2,-,N/A,,Clear,80,2013-09-08 23:45:00
7:45 PM,68.0,60.8,78,30.00,10.0,East,3.5,-,N/A,,Clear,100,2013-09-09 00:45:00
8:45 PM,68.0,60.8,78,29.98,10.0,ESE,4.6,-,N/A,,Clear,120,2013-09-09 01:45:00
9:15 PM,68.0,60.8,78,30.00,10.0,Calm,Calm,-,N/A,,Clear,0,2013-09-09 02:15:00
9:35 PM,66.2,60.8,83,30.01,10.0,NNE,4.6,-,N/A,,Clear,30,2013-09-09 02:35:00
9:55 PM,66.2,60.8,83,30.01,10.0,NE,3.5,-,N/A,,Mostly Cloudy,50,2013-09-09 02:55:00
10:15 PM,68.0,60.8,78,30.02,10.0,NE,3.5,-,N/A,,Overcast,50,2013-09-09 03:15:00
10:35 PM,68.0,60.8,78,30.02,10.0,NE,4.6,-,N/A,Rain,Light Rain,50,2013-09-09 03:35:00
10:55 PM,66.2,60.8,83,30.02,10.0,ENE,4.6,-,N/A,,Overcast,60,2013-09-09 03:55:00
11:15 PM,66.2,60.8,83,30.02,10.0,NE,4.6,-,N/A,,Overcast,50,2013-09-09 04:15:00
11:35 PM,68.0,60.8,78,30.01,10.0,Calm,Calm,-,N/A,,Overcast,0,2013-09-09 04:35:00
11:55 PM,68.0,60.8,78,30.01,10.0,Calm,Calm,-,N/A,Rain,Rain,0,2013-09-09 04:55:00